Quillayute, WA
on Monday, November 12, 2012

Monday
Previous Day Next Day
Daily Summary
 ActualAverageRecord
Temperature
Mean Temperature °F / °C 45°F / 7°C  
Max Temperature 54°F / 12°C 51°F / 11°C 64°F / 17°C (1976)
Min Temperature 47°F / 8°C 39°F / 4°C 19°F / -7°C (1985)
Degree Days
Heating Degree Days 14 20  
Month to date heating degree days 230  
Since 1 July heating degree days 1320  
Cooling Degree Days 0 0  
Month to date cooling degree days 0  
Year to date cooling degree days 19  
Moisture
Dew Point 50°F / 10°C   
Average Humidity 96    
Maximum Humidity 100    
Minimum Humidity 38    
Precipitation
Precipitation 0.05 in / 1.27 cm 0.52 in / 13.21 cm 4.05 in / 10.29 cm (1998)
Month to date precipitation 5.98  
Year to date precipitation 77.01  
Wind
Wind Speed 3 mph / 5 km/h   
Max Wind Speed 12 mph / 19 km/h   
Max Gust Speed 16 mph / 26 km/h   
Visibility 4 miles / 7 kilometers   
Events Fog , Rain   

Key: T is trace of precipitation, MM is missing value
Source: NWS Daily Summary
Time(PST)TemperatureDew PointHumidity Pressure Visibility Wind DirectionWind SpeedGust SpeedPrecipitationEvents Conditions
12:20 AM 48.2°F / 9.0°C - N/A% 29.97 in / 1014.8 hPa 6.0 miles / 9.7 kilometers SSE 8.1 mph / 13.0 km/h - N/A   Haze
12:46 AM 48.2°F / 9.0°C - N/A% 29.97 in / 1014.8 hPa 3.0 miles / 4.8 kilometers SSE 4.6 mph / 7.4 km/h - N/A   Overcast
12:53 AM 48.9°F / 9.4°C - N/A% 29.98 in / 1015.1 hPa 4.0 miles / 6.4 kilometers Variable 5.8 mph / 9.3 km/h - N/A   Haze
1:27 AM 48.2°F / 9.0°C - N/A% 29.98 in / 1015.1 hPa 1.8 miles / 2.8 kilometers South 4.6 mph / 7.4 km/h - N/A   Overcast
1:36 AM 48.2°F / 9.0°C - N/A% 29.99 in / 1015.5 hPa 1.0 miles / 1.6 kilometers Variable 3.5 mph / 5.6 km/h - N/A   Overcast
1:43 AM 48.2°F / 9.0°C - N/A% 29.99 in / 1015.5 hPa 1.0 miles / 1.6 kilometers South 4.6 mph / 7.4 km/h - 0.01 in / 0.3 cm Rain Light Rain
1:53 AM 48.9°F / 9.4°C - N/A% 29.99 in / 1015.6 hPa 1.2 miles / 2.0 kilometers Variable 3.5 mph / 5.6 km/h - 0.01 in / 0.3 cm   Overcast
2:09 AM 48.2°F / 9.0°C - N/A% 30.00 in / 1015.8 hPa 1.5 miles / 2.4 kilometers SSW 4.6 mph / 7.4 km/h - N/A   Overcast
2:27 AM 48.2°F / 9.0°C - N/A% 30.00 in / 1015.8 hPa 1.2 miles / 2.0 kilometers South 3.5 mph / 5.6 km/h - N/A   Overcast
2:35 AM 50.0°F / 10.0°C - N/A% 30.00 in / 1015.8 hPa 2.0 miles / 3.2 kilometers WSW 4.6 mph / 7.4 km/h - N/A   Overcast
2:44 AM 50.0°F / 10.0°C - N/A% 30.01 in / 1016.1 hPa 5.0 miles / 8.0 kilometers West 6.9 mph / 11.1 km/h - N/A   Haze
2:53 AM 50.0°F / 10.0°C - N/A% 30.01 in / 1016.2 hPa 5.0 miles / 8.0 kilometers West 4.6 mph / 7.4 km/h - N/A   Haze
3:00 AM 50.0°F / 10.0°C - N/A% 30.01 in / 1016.1 hPa 5.0 miles / 8.0 kilometers West 3.5 mph / 5.6 km/h - N/A   Haze
3:53 AM 50.0°F / 10.0°C - N/A% 30.03 in / 1016.7 hPa 4.0 miles / 6.4 kilometers Calm Calm - N/A   Haze
4:29 AM 50.0°F / 10.0°C - N/A% 30.03 in / 1016.8 hPa 1.8 miles / 2.8 kilometers SSW 4.6 mph / 7.4 km/h - N/A Rain Light Rain
4:50 AM 48.2°F / 9.0°C - N/A% 30.04 in / 1017.2 hPa 3.0 miles / 4.8 kilometers West 3.5 mph / 5.6 km/h - 0.01 in / 0.3 cm Rain Light Rain
4:53 AM 48.9°F / 9.4°C - N/A% 30.04 in / 1017.2 hPa 5.0 miles / 8.0 kilometers WSW 3.5 mph / 5.6 km/h - 0.01 in / 0.3 cm   Haze
5:03 AM 48.2°F / 9.0°C - N/A% 30.04 in / 1017.2 hPa 3.0 miles / 4.8 kilometers WSW 4.6 mph / 7.4 km/h - 0.01 in / 0.3 cm   Overcast
5:07 AM 48.2°F / 9.0°C - N/A% 30.04 in / 1017.2 hPa 2.5 miles / 4.0 kilometers WSW 4.6 mph / 7.4 km/h - 0.01 in / 0.3 cm   Overcast
5:16 AM 48.2°F / 9.0°C - N/A% 30.05 in / 1017.5 hPa 1.5 miles / 2.4 kilometers West 4.6 mph / 7.4 km/h - 0.01 in / 0.3 cm Rain Light Rain
5:25 AM 48.2°F / 9.0°C - N/A% 30.05 in / 1017.5 hPa 2.5 miles / 4.0 kilometers WSW 3.5 mph / 5.6 km/h - 0.01 in / 0.3 cm Rain Light Rain
5:40 AM 48.2°F / 9.0°C - N/A% 30.05 in / 1017.5 hPa 4.0 miles / 6.4 kilometers Calm Calm - 0.01 in / 0.3 cm   Haze
5:50 AM 48.2°F / 9.0°C - N/A% 30.05 in / 1017.5 hPa 1.8 miles / 2.8 kilometers Calm Calm - 0.01 in / 0.3 cm   Mostly Cloudy
5:53 AM 48.0°F / 8.9°C - N/A% 30.06 in / 1017.7 hPa 1.5 miles / 2.4 kilometers Calm Calm - 0.01 in / 0.3 cm   Mostly Cloudy
6:00 AM 48.2°F / 9.0°C - N/A% 30.05 in / 1017.5 hPa 0.8 miles / 1.2 kilometers Calm Calm - N/A   Mostly Cloudy
6:10 AM 48.2°F / 9.0°C - N/A% 30.06 in / 1017.8 hPa 0.2 miles / 0.4 kilometers Calm Calm - N/A Fog Fog
6:33 AM 46.4°F / 8.0°C - N/A% 30.06 in / 1017.8 hPa 0.2 miles / 0.4 kilometers Calm Calm - N/A Fog Fog
6:39 AM 46.4°F / 8.0°C - N/A% 30.06 in / 1017.8 hPa 1.0 miles / 1.6 kilometers Calm Calm - N/A   Overcast
6:42 AM 46.4°F / 8.0°C - N/A% 30.06 in / 1017.8 hPa 2.0 miles / 3.2 kilometers Calm Calm - N/A   Overcast
6:50 AM 48.2°F / 9.0°C - N/A% 30.07 in / 1018.2 hPa 4.0 miles / 6.4 kilometers ESE 3.5 mph / 5.6 km/h - N/A   Haze
6:53 AM 48.0°F / 8.9°C - N/A% 30.07 in / 1018.2 hPa 4.0 miles / 6.4 kilometers Calm Calm - N/A   Haze
7:07 AM 46.4°F / 8.0°C - N/A% 30.07 in / 1018.2 hPa 5.0 miles / 8.0 kilometers Calm Calm - N/A   Haze
7:19 AM 46.4°F / 8.0°C - N/A% 30.08 in / 1018.5 hPa 1.8 miles / 2.8 kilometers SSE 3.5 mph / 5.6 km/h - N/A   Overcast
7:25 AM 46.4°F / 8.0°C - N/A% 30.08 in / 1018.5 hPa 2.0 miles / 3.2 kilometers SE 3.5 mph / 5.6 km/h - N/A   Overcast
7:34 AM 46.4°F / 8.0°C - N/A% 30.08 in / 1018.5 hPa 4.0 miles / 6.4 kilometers Calm Calm - N/A   Haze
7:53 AM 48.0°F / 8.9°C - N/A% 30.09 in / 1018.9 hPa 2.5 miles / 4.0 kilometers Calm Calm - N/A   Overcast
8:02 AM 48.2°F / 9.0°C - N/A% 30.09 in / 1018.8 hPa 2.5 miles / 4.0 kilometers Calm Calm - N/A   Overcast
8:19 AM 48.2°F / 9.0°C - N/A% 30.09 in / 1018.8 hPa 1.5 miles / 2.4 kilometers Calm Calm - N/A   Overcast
8:46 AM 48.2°F / 9.0°C - N/A% 30.09 in / 1018.8 hPa 2.0 miles / 3.2 kilometers SE 4.6 mph / 7.4 km/h - N/A   Overcast
8:53 AM 50.0°F / 10.0°C - N/A% 30.09 in / 1019.0 hPa 2.5 miles / 4.0 kilometers Calm Calm - N/A   Overcast
9:30 AM 51.8°F / 11.0°C - N/A% 30.10 in / 1019.2 hPa 3.0 miles / 4.8 kilometers Variable 3.5 mph / 5.6 km/h - N/A   Overcast
9:50 AM 50.0°F / 10.0°C - N/A% 30.10 in / 1019.2 hPa 3.0 miles / 4.8 kilometers South 4.6 mph / 7.4 km/h - N/A   Overcast
9:53 AM 50.0°F / 10.0°C - N/A% 30.11 in / 1019.4 hPa 3.0 miles / 4.8 kilometers South 4.6 mph / 7.4 km/h - N/A   Overcast
10:53 AM 51.1°F / 10.6°C - N/A% 30.12 in / 1019.9 hPa 4.0 miles / 6.4 kilometers South 8.1 mph / 13.0 km/h - 0.00 in / 0.0 cm   Haze
11:18 AM 51.8°F / 11.0°C - N/A% 30.12 in / 1019.9 hPa 5.0 miles / 8.0 kilometers South 5.8 mph / 9.3 km/h - 0.00 in / 0.0 cm   Haze
11:23 AM 53.6°F / 12.0°C - N/A% 30.12 in / 1019.9 hPa 5.0 miles / 8.0 kilometers South 5.8 mph / 9.3 km/h - 0.00 in / 0.0 cm   Haze
11:31 AM 51.8°F / 11.0°C - N/A% 30.12 in / 1019.9 hPa 4.0 miles / 6.4 kilometers South 5.8 mph / 9.3 km/h - 0.00 in / 0.0 cm   Haze
11:53 AM 52.0°F / 11.1°C 52.0°F / 11.1°C 100% 30.12 in / 1019.9 hPa 5.0 miles / 8.0 kilometers South 5.8 mph / 9.3 km/h - 0.00 in / 0.0 cm   Overcast
12:09 PM 53.6°F / 12.0°C 51.8°F / 11.0°C 94% 30.12 in / 1019.9 hPa 5.0 miles / 8.0 kilometers Variable 6.9 mph / 11.1 km/h - N/A   Overcast
12:29 PM 51.8°F / 11.0°C 51.8°F / 11.0°C 100% 30.12 in / 1019.9 hPa 5.0 miles / 8.0 kilometers South 8.1 mph / 13.0 km/h - N/A   Overcast
12:39 PM 51.8°F / 11.0°C 50.0°F / 10.0°C 94% 30.12 in / 1019.9 hPa 6.0 miles / 9.7 kilometers SSW 8.1 mph / 13.0 km/h - N/A   Overcast
12:50 PM 53.6°F / 12.0°C 50.0°F / 10.0°C 88% 30.12 in / 1019.9 hPa 5.0 miles / 8.0 kilometers South 8.1 mph / 13.0 km/h - N/A   Overcast
12:53 PM 52.0°F / 11.1°C 50.0°F / 10.0°C 93% 30.12 in / 1020.0 hPa 6.0 miles / 9.7 kilometers South 10.4 mph / 16.7 km/h 16.1 mph / 25.9 km/h N/A   Overcast
1:26 PM 53.6°F / 12.0°C 51.8°F / 11.0°C 94% 30.12 in / 1019.9 hPa 5.0 miles / 8.0 kilometers Variable 3.5 mph / 5.6 km/h - N/A   Mostly Cloudy
1:45 PM 53.6°F / 12.0°C 51.8°F / 11.0°C 94% 30.12 in / 1019.9 hPa 6.0 miles / 9.7 kilometers South 6.9 mph / 11.1 km/h - N/A   Mostly Cloudy
1:53 PM 53.1°F / 11.7°C 51.1°F / 10.6°C 93% 30.12 in / 1020.0 hPa 6.0 miles / 9.7 kilometers SSW 4.6 mph / 7.4 km/h - N/A   Overcast
2:04 PM 53.6°F / 12.0°C 50.0°F / 10.0°C 88% 30.12 in / 1019.9 hPa 6.0 miles / 9.7 kilometers South 5.8 mph / 9.3 km/h - N/A   Overcast
2:12 PM 53.6°F / 12.0°C 51.8°F / 11.0°C 94% 30.12 in / 1019.9 hPa 6.0 miles / 9.7 kilometers South 8.1 mph / 13.0 km/h - N/A   Overcast
2:53 PM 52.0°F / 11.1°C 51.1°F / 10.6°C 97% 30.13 in / 1020.1 hPa 6.0 miles / 9.7 kilometers South 5.8 mph / 9.3 km/h - N/A   Mostly Cloudy
3:04 PM 51.8°F / 11.0°C 51.8°F / 11.0°C 100% 30.13 in / 1020.2 hPa 6.0 miles / 9.7 kilometers Variable 3.5 mph / 5.6 km/h - N/A   Overcast
3:31 PM 51.8°F / 11.0°C 50.0°F / 10.0°C 94% 30.13 in / 1020.2 hPa 5.0 miles / 8.0 kilometers South 4.6 mph / 7.4 km/h - N/A   Overcast
3:53 PM 52.0°F / 11.1°C 51.1°F / 10.6°C 97% 30.13 in / 1020.3 hPa 5.0 miles / 8.0 kilometers South 4.6 mph / 7.4 km/h - N/A   Overcast
4:01 PM 51.8°F / 11.0°C 51.8°F / 11.0°C 100% 30.13 in / 1020.2 hPa 5.0 miles / 8.0 kilometers South 4.6 mph / 7.4 km/h - N/A   Overcast
4:18 PM 51.8°F / 11.0°C 50.0°F / 10.0°C 94% 30.13 in / 1020.2 hPa 6.0 miles / 9.7 kilometers Calm Calm - N/A   Mostly Cloudy
4:41 PM 51.8°F / 11.0°C 50.0°F / 10.0°C 94% 30.13 in / 1020.2 hPa 2.5 miles / 4.0 kilometers South 5.8 mph / 9.3 km/h - 0.00 in / 0.0 cm Rain Light Rain
4:47 PM 51.8°F / 11.0°C 50.0°F / 10.0°C 94% 30.13 in / 1020.2 hPa 5.0 miles / 8.0 kilometers SSW 4.6 mph / 7.4 km/h - 0.00 in / 0.0 cm Rain Light Rain
4:48 PM 51.1°F / 10.6°C 50.0°F / 10.0°C 96% 30.13 in / 1020.3 hPa 5.0 miles / 8.0 kilometers SSW 3.5 mph / 5.6 km/h - 0.00 in / 0.0 cm Rain Light Rain
4:56 PM 50.0°F / 10.0°C 50.0°F / 10.0°C 100% 30.13 in / 1020.2 hPa 6.0 miles / 9.7 kilometers South 3.5 mph / 5.6 km/h - N/A   Mostly Cloudy
5:05 PM 50.0°F / 10.0°C 50.0°F / 10.0°C 100% 30.13 in / 1020.2 hPa 6.0 miles / 9.7 kilometers South 3.5 mph / 5.6 km/h - N/A   Overcast
5:20 PM 50.0°F / 10.0°C 50.0°F / 10.0°C 100% 30.13 in / 1020.2 hPa 6.0 miles / 9.7 kilometers Calm Calm - N/A   Overcast
5:33 PM 50.0°F / 10.0°C 50.0°F / 10.0°C 100% 30.13 in / 1020.2 hPa 7.0 miles / 11.3 kilometers Calm Calm - N/A   Overcast
5:53 PM 50.0°F / 10.0°C 50.0°F / 10.0°C 100% 30.14 in / 1020.5 hPa 6.0 miles / 9.7 kilometers Calm Calm - N/A   Overcast
6:26 PM 51.8°F / 11.0°C 51.8°F / 11.0°C 100% 30.14 in / 1020.5 hPa 2.5 miles / 4.0 kilometers South 4.6 mph / 7.4 km/h - 0.01 in / 0.3 cm Rain Light Rain
6:41 PM 51.8°F / 11.0°C 51.8°F / 11.0°C 100% 30.14 in / 1020.5 hPa 2.5 miles / 4.0 kilometers South 5.8 mph / 9.3 km/h - 0.02 in / 0.5 cm Rain Light Rain
6:46 PM 51.8°F / 11.0°C 51.8°F / 11.0°C 100% 30.14 in / 1020.5 hPa 4.0 miles / 6.4 kilometers South 3.5 mph / 5.6 km/h - 0.02 in / 0.5 cm Rain Light Rain
6:53 PM 51.1°F / 10.6°C 51.1°F / 10.6°C 100% 30.14 in / 1020.6 hPa 4.0 miles / 6.4 kilometers South 4.6 mph / 7.4 km/h - 0.02 in / 0.5 cm Rain Light Rain
7:53 PM 50.0°F / 10.0°C 50.0°F / 10.0°C 100% 30.14 in / 1020.7 hPa 5.0 miles / 8.0 kilometers Calm Calm - 0.00 in / 0.0 cm   Overcast
8:36 PM 50.0°F / 10.0°C 50.0°F / 10.0°C 100% 30.15 in / 1020.9 hPa 6.0 miles / 9.7 kilometers Calm Calm - N/A   Overcast
8:53 PM 51.1°F / 10.6°C 51.1°F / 10.6°C 100% 30.16 in / 1021.3 hPa 6.0 miles / 9.7 kilometers Calm Calm - N/A   Overcast
9:04 PM 51.8°F / 11.0°C 51.8°F / 11.0°C 100% 30.16 in / 1021.2 hPa 6.0 miles / 9.7 kilometers Calm Calm - N/A   Overcast
9:12 PM 51.8°F / 11.0°C 51.8°F / 11.0°C 100% 30.16 in / 1021.2 hPa 6.0 miles / 9.7 kilometers South 3.5 mph / 5.6 km/h - N/A   Overcast
9:27 PM 51.8°F / 11.0°C 51.8°F / 11.0°C 100% 30.16 in / 1021.2 hPa 7.0 miles / 11.3 kilometers South 5.8 mph / 9.3 km/h - N/A   Overcast
9:43 PM 51.8°F / 11.0°C 50.0°F / 10.0°C 94% 30.16 in / 1021.2 hPa 6.0 miles / 9.7 kilometers Calm Calm - 0.00 in / 0.0 cm Rain Light Rain
9:50 PM 51.8°F / 11.0°C 51.8°F / 11.0°C 100% 30.16 in / 1021.2 hPa 7.0 miles / 11.3 kilometers SW 3.5 mph / 5.6 km/h - 0.00 in / 0.0 cm   Overcast
9:53 PM 51.1°F / 10.6°C 51.1°F / 10.6°C 100% 30.17 in / 1021.5 hPa 7.0 miles / 11.3 kilometers SW 3.5 mph / 5.6 km/h - 0.00 in / 0.0 cm   Overcast
10:53 PM 50.0°F / 10.0°C 50.0°F / 10.0°C 100% 30.17 in / 1021.6 hPa 7.0 miles / 11.3 kilometers Calm Calm - 0.00 in / 0.0 cm   Overcast
11:27 PM 50.0°F / 10.0°C 50.0°F / 10.0°C 100% 30.17 in / 1021.6 hPa 6.0 miles / 9.7 kilometers Calm Calm - N/A   Overcast
11:43 PM 50.0°F / 10.0°C 50.0°F / 10.0°C 100% 30.17 in / 1021.6 hPa 6.0 miles / 9.7 kilometers Calm Calm - N/A   Overcast
11:53 PM 48.9°F / 9.4°C 48.9°F / 9.4°C 100% 30.17 in / 1021.6 hPa 6.0 miles / 9.7 kilometers Calm Calm - N/A   Overcast
Moon Phase
Nov. 12 Nov. 13 Nov. 20 Nov. 28 Dec. 06
Sunrise:07:20 AM (PST) Moon Rise:05:49 AM (PST)11/12
Sunset:04:43 PM (PST) Moon Set:03:54 PM (PST)11/12

Copyright © 2014 The Weather Underground, Inc.